[[{"header":{"parameterUnit":"m.s-1","parameterCategory":1,"la1":30.2992,"la2":30.254,"lo1":-89.0895,"lo2":-89.0443,"dy":0.0025,"dx":0.0025,"nx":19,"ny":19,"refTime":"2026-05-14T21:00:00:Z","depth":0,"parameterNumber":2,"parameterNumberName":"U-component_of_WINDS"},"data":[0,0,0,0.3088,0.309,0.3212,0.3212,0.3364,0.3365,0,0,0,0,0,0,0,0,0,0,0,0.3046,0.3047,0.3087,0.309,0.3212,0.3212,0.3363,0.3365,0,0,0,0,0,0,0,0,0,0,0,0.3046,0.3047,0.3048,0.3091,0.3212,0.3212,0.3363,0.3274,0,0,0,0,0,0,0,0,0,0,0.3156,0.3112,0.3047,0.3048,0.3091,0.3211,0.3212,0.3269,0.3279,0.3306,0,0.3326,0,0.3348,0.3375,0.3375,0,0,0,0.3095,0.3104,0.3141,0.3048,0.3092,0.3211,0.3158,0.3275,0.3286,0.3319,0.3328,0.3334,0.335,0.3376,0.3376,0.3512,0.3513,0,0,0.3088,0.3066,0.3134,0.3148,0.3126,0.3154,0.3162,0.3282,0.3291,0.3329,0.3338,0.3353,0.3377,0.3378,0.3512,0.3512,0,0,0,0.3066,0.3061,0.3096,0.3142,0.3164,0.3158,0.3166,0.3286,0.3299,0.334,0.3355,0.3377,0.3379,0.3511,0.3512,0.3511,0,0,0,0.3062,0.3048,0.3092,0.308,0.3162,0.3226,0.3168,0.3291,0.3305,0.3354,0.3377,0.3381,0.3511,0.3512,0.351,0.3514,0,0,0,0.304,0.3045,0.3061,0.3079,0.313,0.3225,0.3245,0.3294,0.3314,0.3375,0.3381,0.3511,0.3512,0.3509,0.3513,0.3545,0,0,0,0.3011,0.3058,0.3061,0.312,0.3129,0.3222,0.3244,0.3315,0.3368,0.3378,0.3511,0.3512,0.3509,0.3512,0.3543,0.3567,0.3574,0,0,0.3059,0.3063,0.31,0.3106,0.3193,0.3205,0.3294,0.3364,0.3391,0.3471,0.3475,0.351,0.3513,0.3544,0.3623,0.3629,0,0,0,0.3108,0.3134,0.3162,0.321,0.3263,0.3311,0.3369,0.3396,0.3465,0.3427,0.3531,0.3533,0.3552,0.3565,0.357,0.3588,0.3516,0.3516,0.3516,0.3143,0.3174,0.3238,0.3284,0.3331,0.3392,0.3434,0.348,0.3499,0.3523,0.3547,0.359,0.3604,0.3608,0.3627,0.3561,0.3562,0.3562,0.3562,0.3216,0.3258,0.3282,0.3352,0.3387,0.3447,0.3509,0.352,0.3583,0.3575,0.3593,0.3581,0.3613,0.3632,0.3562,0.3562,0.3562,0.3562,0.3562,0.3242,0.3268,0.3299,0.3373,0.3428,0.3475,0.3534,0.3564,0.3592,0.3611,0.364,0.364,0.3645,0.3622,0.3623,0.3623,0.3623,0.3623,0.3623,0.3257,0.3292,0.3337,0.34,0.3436,0.3487,0.3551,0.3588,0.3637,0.3654,0.3655,0.3672,0.361,0.3594,0.3626,0.3625,0.3625,0.3625,0.3625,0.332,0.3311,0.338,0.3416,0.3494,0.3547,0.3585,0.3659,0.3694,0.3723,0.3737,0.3686,0.3693,0.369,0.3677,0.3729,0.3729,0.3729,0.3729,0.3342,0.3349,0.3428,0.3484,0.3543,0.3584,0.3666,0.3717,0.3769,0.3794,0.3791,0.3776,0.3771,0.3782,0.3776,0.3765,0.3838,0.3838,0.3838,0.3383,0.3397,0.3459,0.3507,0.3571,0.3626,0.3704,0.377,0.3828,0.3843,0.3814,0.3809,0.3786,0.3777,0.379,0.3781,0.376,0,0]},{"header":{"parameterUnit":"m.s-1","parameterCategory":1,"la1":30.2992,"la2":30.254,"lo1":-89.0895,"lo2":-89.0443,"dy":0.0025,"dx":0.0025,"nx":19,"ny":19,"refTime":"2026-05-14T21:00:00:Z","depth":0,"parameterNumber":3,"parameterNumberName":"V-component_of_WINDS"},"data":[0,0,0,-1.4152,-1.4152,-1.4184,-1.4185,-1.4191,-1.4191,0,0,0,0,0,0,0,0,0,0,0,-1.4121,-1.4121,-1.4152,-1.4152,-1.4184,-1.4185,-1.4191,-1.4191,0,0,0,0,0,0,0,0,0,0,0,-1.4122,-1.4121,-1.412,-1.4152,-1.4184,-1.4185,-1.4191,-1.4179,0,0,0,0,0,0,0,0,0,0,-1.4154,-1.4106,-1.4121,-1.412,-1.4152,-1.4184,-1.4185,-1.4179,-1.418,-1.4162,0,-1.4141,0,-1.4166,-1.4189,-1.4189,0,0,0,-1.4167,-1.4105,-1.4132,-1.412,-1.4152,-1.4184,-1.4174,-1.418,-1.4181,-1.4163,-1.4141,-1.4142,-1.4166,-1.4189,-1.4189,-1.4034,-1.4032,0,0,-1.4165,-1.4116,-1.4132,-1.4132,-1.4125,-1.4173,-1.4175,-1.4181,-1.4154,-1.4141,-1.4143,-1.4166,-1.4189,-1.4189,-1.4035,-1.4033,0,0,0,-1.415,-1.4114,-1.4142,-1.4131,-1.4139,-1.4173,-1.4176,-1.4154,-1.4167,-1.4144,-1.4166,-1.4189,-1.4189,-1.4037,-1.4035,-1.3913,0,0,0,-1.415,-1.4105,-1.4141,-1.4111,-1.4138,-1.4147,-1.4148,-1.4167,-1.4169,-1.4166,-1.4189,-1.4188,-1.4039,-1.4036,-1.392,-1.3862,0,0,0,-1.4126,-1.4103,-1.4101,-1.4108,-1.412,-1.4148,-1.4162,-1.4169,-1.4182,-1.4189,-1.4188,-1.404,-1.4036,-1.3926,-1.3872,-1.3804,0,0,0,-1.4087,-1.3993,-1.4098,-1.4002,-1.412,-1.4074,-1.4163,-1.4132,-1.4123,-1.4189,-1.4038,-1.4035,-1.3928,-1.3879,-1.381,-1.3735,-1.37,0,0,-1.394,-1.3973,-1.3921,-1.4016,-1.3938,-1.4073,-1.3978,-1.4017,-1.4064,-1.4041,-1.4038,-1.3917,-1.3873,-1.3805,-1.3528,-1.3499,0,0,0,-1.3858,-1.3818,-1.3809,-1.3799,-1.3827,-1.3846,-1.3906,-1.3921,-1.3904,-1.4042,-1.3878,-1.3853,-1.3816,-1.3781,-1.3757,-1.3726,-1.4018,-1.4019,-1.4019,-1.3576,-1.3641,-1.3557,-1.3625,-1.3615,-1.3677,-1.3674,-1.3705,-1.3774,-1.3734,-1.3725,-1.3549,-1.3508,-1.349,-1.3457,-1.3695,-1.3694,-1.3694,-1.3694,-1.3364,-1.3317,-1.3412,-1.3364,-1.3432,-1.3393,-1.345,-1.35,-1.3473,-1.3561,-1.3531,-1.3618,-1.3457,-1.3431,-1.3685,-1.3687,-1.3688,-1.3689,-1.3689,-1.3182,-1.3171,-1.3192,-1.3183,-1.317,-1.3244,-1.3212,-1.3278,-1.3339,-1.331,-1.3306,-1.3308,-1.3315,-1.3304,-1.3304,-1.3303,-1.3303,-1.3302,-1.3302,-1.2984,-1.3012,-1.2977,-1.3,-1.3001,-1.3012,-1.3075,-1.3079,-1.3099,-1.3148,-1.3149,-1.3218,-1.3431,-1.348,-1.3292,-1.3294,-1.3295,-1.3296,-1.3297,-1.2736,-1.2803,-1.2749,-1.2751,-1.2783,-1.2763,-1.2849,-1.285,-1.2862,-1.2844,-1.2923,-1.3071,-1.3108,-1.3128,-1.3169,-1.2912,-1.2912,-1.2912,-1.2912,-1.258,-1.2607,-1.2566,-1.2564,-1.257,-1.2641,-1.2577,-1.2625,-1.2686,-1.2697,-1.2746,-1.2807,-1.2824,-1.2852,-1.2877,-1.2916,-1.2601,-1.26,-1.26,-1.2429,-1.246,-1.2391,-1.2453,-1.2483,-1.2506,-1.2447,-1.244,-1.2523,-1.2589,-1.2707,-1.272,-1.282,-1.285,-1.2913,-1.2951,-1.3024,0,0]}]]